Showing default

OPS 9333 (IDSCS 18), 2864

Orbit data source: Space-Track

OPS 9333 (IDSCS 18), 2864 is a payload satellite owned by SAMSO (US) in GEO that was launched on Sat, 01 Jul 1967 UTC via a TITAN IIIC launch vehicle from the Air Force Eastern Test Range (AFETR). Payload-class satellites include a variety of spacecraft equipped with specific instruments for various scientific and technological missions. These include communications satellites like Starlink; space stations such as the ISS; scientific satellites like the Hubble; Earth observation satellites from companies like Planet Labs, Umbra, and HawkEye 360; GPS; miniature CubeSats for education and research; and military/defense satellites.

Not visible in the next 10 days
Identifier
2864, 1967-066C
Orbit
GEO
Country
Flag of USUS
Related business
Manufacturer
Philco-Ford WDL
Mission
Non-operational spacecraft
Bus & Motor
IDCSP, Unknown motor
Mass
45 kg wet, 45 kg dry
Launch date (UTC)
1967-07-01 (59 years ago)
Launch vehicle
TITAN IIIC
Launch site
Air Force Eastern Test Range (AFETR)
Object type
Payload
Rocket body
Debris
Shape & HBR
Unknown
Radar Cross Section
Medium (>0.1 m² and <1 m²)

Expand to show TLE details & history
Last TLE update: 4 hours ago

TLE from 4 hours ago
0 OPS 9333 (IDSCS 18)
1  2864U 67066C   26131.48541176 -.00000097  00000-0  00000+0 0  9990
2  2864   2.7009  96.7204 0058341 235.3703 164.4406  1.09786541131148
Epoch: 2026-05-11T11:38Z
TLE epoch observation values (Epoch: 2026-05-11T11:38:59.576Z)
Latitude
1.72541°
Longitude
92.64701°
Altitude
33,535.369 km
Speed
3.151 km/s
True Right ascension
09h 06m 40s
True Declination
1° 43' 25"
Sunlit
Object was in daylight at epoch
Visualization orbit readout
Latitude
Unknown
Longitude
Unknown
Altitude
Unknown
Speed
Unknown
Apparent Right ascension
Unknown
Apparent Declination
Unknown
Sunlit
N/A
Visualization observer readout
Local Sidereal Time
00:04:06
Azimuth
Unknown
Elevation
Unknown
Doppler factor
Unknown
Orbital elements
Apogee altitude
33,546.517 km
Perigee altitude
33,083.37 km
Semi-major axis
39,693.081 km
Eccentricity
0.00583
Inclination
2.7009°
RAAN
96.7204°
Arg. of periapsis
235.3703°
True anomaly
164.61868°
Mean anomaly
164.4406°
Eccentric anomaly
164.52976°
Mean motion
0.27445 °/min
Orbital period
1,311.69 mins
BSTAR
0
Loading maneuver chart data...
Computing Atmospheric mass density...
Loading historical data...
Loading historical data...
Loading historical data...
Loading historical data...
Loading historical data...
Loading historical data...
Loading historical data...

Documentation

Showing up to 5 results
|